sat.trackr.live / text

‹ back to catalog

STARLINK-31441

NORAD 60091 · 2024-117A

PAYLOAD ACTIVE UNKNOWN

§ Identity

Operator
Country
US
Launch date
2024-06-23
Launch site
AFETR
Launch vehicle
Mass (kg)
RCS (m²)

Purposes: comms

External: N2YO · Heavens-Above · Gunter

§ Orbital elements

Epoch: 2026-09-21T02:59:05.209440Z

Period
93.85 min
Inclination
53.1590°
Eccentricity
0.0001317
Mean motion
15.34383799 rev/d
Perigee alt
461.9 km
Apogee alt
463.7 km
Semi-major
6,840.9 km
B*
8.2251e-6
RAAN
206.8530°
Arg perigee
84.6862°
Mean anomaly
275.4290°
Rev number
12,684

§ Raw data

STARLINK-314411 60091U 24117A   26264.12436585 -.00000098  00000+0  82251-5 0  99952 60091  53.1590 206.8530 0001317  84.6862 275.4290 15.34383799126843

JSON: /api/v1/satellites/60091 · /tle

For live sub-satellite position, see the globe view (requires WebGL).

§ Visibility from observer

Set your observer location to see the next 7 days of passes ≥ 10°. The values pass through the URL so the page stays shareable.

No JS? Fill the form by hand. The geolocation button needs JavaScript.